CXA8403 ZSAM-ZUCK

Flight info

Callsign CXA8403
Flight time 2h 8m
Altitude 34100
Route K0882S1040 NUSPA9Z NUSPA W598 DABER W155 VETIB DCT NUVGA DCT XEBUL DCT MABAG DCT WYN G586 QP B330 ELKAL W179 SUMUN W3 AGTIS/K0872S1070 W3 ASIPO/K0867S1100 W678 SEGDA SEGDD2
Aircraft B738/M-SDE2E3FGHIRWXY/LB1

Departure

Time 2026-04-29 17:48
Airport Xiamen Gaoqi International Airport (ZSAM)

Arrival

Time 2026-04-29 19:56
Airport Chongqing Jiangbei International Airport (ZUCK)
Time Latitude Longitude Altitude Speed Heading
2026-04-29 17:18 24.53926 118.12775 55 ft 0 kts 143°
2026-04-29 17:29 24.53937 118.12766 53 ft 4 kts 141°
2026-04-29 17:30 24.53966 118.12744 48 ft 4 kts 152°
2026-04-29 17:30 24.53991 118.12732 48 ft 3 kts 158°
2026-04-29 17:30 24.53998 118.12729 48 ft 0 kts 158°
2026-04-29 17:39 24.53995 118.12729 55 ft 1 kts 168°
2026-04-29 17:39 24.53990 118.12724 55 ft 1 kts 226°
2026-04-29 17:39 24.53981 118.12709 52 ft 4 kts 235°
2026-04-29 17:40 24.53960 118.12676 53 ft 7 kts 235°
2026-04-29 17:40 24.53926 118.12630 56 ft 8 kts 230°
2026-04-29 17:40 24.53916 118.12574 54 ft 9 kts 317°
2026-04-29 17:40 24.53958 118.12538 52 ft 7 kts 323°
2026-04-29 17:41 24.53993 118.12507 57 ft 6 kts 312°
2026-04-29 17:41 24.53988 118.12462 56 ft 6 kts 233°
2026-04-29 17:41 24.53961 118.12424 54 ft 6 kts 231°
2026-04-29 17:41 24.53934 118.12387 52 ft 6 kts 232°
2026-04-29 17:42 24.53905 118.12346 56 ft 8 kts 232°
2026-04-29 17:42 24.53868 118.12294 53 ft 9 kts 232°
2026-04-29 17:42 24.53826 118.12235 58 ft 10 kts 232°
2026-04-29 17:42 24.53782 118.12173 55 ft 11 kts 232°
2026-04-29 17:43 24.53729 118.12099 59 ft 13 kts 232°
2026-04-29 17:43 24.53667 118.12013 55 ft 16 kts 232°
2026-04-29 17:43 24.53598 118.11916 60 ft 16 kts 232°
2026-04-29 17:43 24.53529 118.11819 56 ft 16 kts 232°
2026-04-29 17:44 24.53469 118.11735 62 ft 10 kts 232°
2026-04-29 17:44 24.53468 118.11670 59 ft 10 kts 316°
2026-04-29 17:44 24.53490 118.11651 59 ft 0 kts 321°
2026-04-29 17:46 24.53494 118.11648 57 ft 2 kts 322°
2026-04-29 17:46 24.53520 118.11626 57 ft 7 kts 322°
2026-04-29 17:46 24.53579 118.11606 60 ft 10 kts 22°
2026-04-29 17:46 24.53605 118.11638 62 ft 0 kts 53°
2026-04-29 17:47 24.53613 118.11649 58 ft 11 kts 53°
2026-04-29 17:47 24.53811 118.11931 56 ft 82 kts 50°
2026-04-29 17:47 24.54514 118.12913 54 ft 159 kts 52°
2026-04-29 17:48 24.55000 118.13601 270 ft 174 kts 51°
2026-04-29 17:48 24.55740 118.14602 1187 ft 164 kts 52°
2026-04-29 17:48 24.56448 118.15627 1843 ft 173 kts 53°
2026-04-29 17:48 24.57221 118.16736 2246 ft 194 kts 51°
2026-04-29 17:49 24.58089 118.17948 2618 ft 208 kts 51°
2026-04-29 17:49 24.59025 118.19276 2777 ft 233 kts 51°
2026-04-29 17:49 24.60238 118.20515 3258 ft 244 kts 25°
2026-04-29 17:49 24.61886 118.20795 3932 ft 241 kts 349°
2026-04-29 17:50 24.63435 118.20073 4522 ft 247 kts 318°
2026-04-29 17:50 24.64438 118.18570 5162 ft 246 kts 288°
2026-04-29 17:50 24.64578 118.16736 5905 ft 241 kts 255°
2026-04-29 17:50 24.63929 118.15061 6676 ft 238 kts 240°
2026-04-29 17:51 24.63095 118.13518 7353 ft 238 kts 238°
2026-04-29 17:51 24.62211 118.11946 8057 ft 239 kts 238°
2026-04-29 17:51 24.61354 118.10413 8771 ft 239 kts 239°
2026-04-29 17:51 24.60493 118.08849 9511 ft 239 kts 239°
2026-04-29 17:52 24.59633 118.07275 9901 ft 239 kts 239°
2026-04-29 17:52 24.59068 118.06236 9995 ft 241 kts 239°
2026-04-29 17:52 24.57908 118.04100 10144 ft 244 kts 239°
2026-04-29 17:52 24.56958 118.02546 10759 ft 245 kts 226°
2026-04-29 17:53 24.55547 118.01505 11316 ft 256 kts 208°
2026-04-29 17:53 24.53753 118.00957 11495 ft 282 kts 194°
2026-04-29 17:53 24.51734 118.00630 11655 ft 303 kts 193°
2026-04-29 17:53 24.49561 118.00304 11794 ft 323 kts 192°
2026-04-29 17:54 24.47302 117.99963 11931 ft 341 kts 192°
2026-04-29 17:54 24.44867 117.99585 12054 ft 358 kts 192°
2026-04-29 17:54 24.42378 117.99186 12160 ft 372 kts 192°
2026-04-29 17:54 24.39763 117.98761 12325 ft 384 kts 192°
2026-04-29 17:55 24.37168 117.98135 12669 ft 382 kts 205°
2026-04-29 17:55 24.34935 117.96649 13222 ft 376 kts 221°
2026-04-29 17:55 24.33115 117.94599 13638 ft 376 kts 234°
2026-04-29 17:55 24.31609 117.92230 14049 ft 379 kts 237°
2026-04-29 17:56 24.30128 117.89820 14403 ft 382 kts 236°
2026-04-29 17:56 24.28443 117.87563 14764 ft 387 kts 228°
2026-04-29 17:56 24.26511 117.85481 15202 ft 389 kts 225°
2026-04-29 17:56 24.24522 117.83452 15558 ft 392 kts 225°
2026-04-29 17:57 24.22516 117.81405 15923 ft 396 kts 225°
2026-04-29 17:57 24.20505 117.79317 16264 ft 399 kts 226°
2026-04-29 17:57 24.18492 117.77194 16611 ft 402 kts 226°
2026-04-29 17:57 24.16494 117.75066 16976 ft 404 kts 226°
2026-04-29 17:58 24.14480 117.72912 17341 ft 406 kts 226°
2026-04-29 17:58 24.12443 117.70730 17692 ft 409 kts 226°
2026-04-29 17:58 24.10422 117.68570 18008 ft 412 kts 226°
2026-04-29 17:58 24.08377 117.66351 18310 ft 414 kts 229°
2026-04-29 17:59 24.06810 117.63717 18553 ft 413 kts 248°
2026-04-29 17:59 24.05993 117.60697 18901 ft 414 kts 259°
2026-04-29 17:59 24.05855 117.57588 19136 ft 419 kts 273°
2026-04-29 17:59 24.06202 117.54412 19457 ft 420 kts 276°
2026-04-29 18:00 24.06610 117.51224 19762 ft 421 kts 276°
2026-04-29 18:00 24.07025 117.48048 20035 ft 422 kts 276°
2026-04-29 18:00 24.07430 117.44897 20272 ft 423 kts 276°
2026-04-29 18:00 24.07830 117.41693 20529 ft 425 kts 276°
2026-04-29 18:01 24.08220 117.38479 20786 ft 426 kts 276°
2026-04-29 18:01 24.08603 117.35268 21017 ft 428 kts 276°
2026-04-29 18:01 24.08981 117.32061 21216 ft 428 kts 276°
2026-04-29 18:01 24.09367 117.28772 21374 ft 430 kts 276°
2026-04-29 18:02 24.09742 117.25568 21551 ft 431 kts 276°
2026-04-29 18:02 24.10123 117.22309 21743 ft 431 kts 276°
2026-04-29 18:02 24.10503 117.19049 21910 ft 432 kts 276°
2026-04-29 18:02 24.10885 117.15778 22061 ft 433 kts 276°
2026-04-29 18:03 24.11261 117.12540 22204 ft 434 kts 276°
2026-04-29 18:03 24.11641 117.09269 22356 ft 435 kts 275°
2026-04-29 18:03 24.12023 117.05974 22479 ft 435 kts 276°
2026-04-29 18:03 24.12404 117.02677 22576 ft 437 kts 276°
2026-04-29 18:04 24.12787 116.99368 22727 ft 437 kts 275°
2026-04-29 18:04 24.13165 116.96088 22883 ft 437 kts 276°
2026-04-29 18:04 24.13545 116.92784 23024 ft 438 kts 275°
2026-04-29 18:04 24.13926 116.89472 23156 ft 438 kts 275°
2026-04-29 18:05 24.14300 116.86145 23263 ft 439 kts 274°
2026-04-29 18:05 24.14534 116.82816 23400 ft 439 kts 272°
2026-04-29 18:05 24.14671 116.79504 23512 ft 439 kts 271°
2026-04-29 18:05 24.14775 116.76156 23619 ft 440 kts 271°
2026-04-29 18:06 24.14880 116.72792 23729 ft 440 kts 271°
2026-04-29 18:06 24.14994 116.69442 23833 ft 440 kts 271°
2026-04-29 18:06 24.15118 116.66092 23932 ft 441 kts 271°
2026-04-29 18:06 24.15248 116.62731 24034 ft 441 kts 271°
2026-04-29 18:07 24.15381 116.59374 24112 ft 442 kts 271°
2026-04-29 18:07 24.15515 116.56005 24203 ft 442 kts 271°
2026-04-29 18:07 24.15647 116.52682 24311 ft 442 kts 271°
2026-04-29 18:07 24.15779 116.49316 24404 ft 442 kts 271°
2026-04-29 18:08 24.15911 116.45931 24472 ft 443 kts 271°
2026-04-29 18:08 24.16045 116.42553 24562 ft 444 kts 272°
2026-04-29 18:08 24.16251 116.39165 24667 ft 443 kts 273°
2026-04-29 18:08 24.16507 116.35838 24758 ft 443 kts 274°
2026-04-29 18:09 24.16784 116.32468 24816 ft 445 kts 274°
2026-04-29 18:09 24.17061 116.29090 24878 ft 446 kts 274°
2026-04-29 18:09 24.17329 116.25725 24983 ft 446 kts 274°
2026-04-29 18:09 24.17592 116.22332 25052 ft 446 kts 274°
2026-04-29 18:10 24.17849 116.18948 25116 ft 447 kts 274°
2026-04-29 18:10 24.18100 116.15580 25196 ft 447 kts 274°
2026-04-29 18:10 24.18352 116.12168 25278 ft 447 kts 273°
2026-04-29 18:10 24.18600 116.08785 25348 ft 448 kts 273°
2026-04-29 18:11 24.18850 116.05377 25397 ft 448 kts 273°
2026-04-29 18:11 24.19101 116.01935 25427 ft 450 kts 273°
2026-04-29 18:11 24.19346 115.98561 25482 ft 450 kts 273°
2026-04-29 18:11 24.19595 115.95144 25543 ft 450 kts 273°
2026-04-29 18:12 24.19842 115.91724 25617 ft 450 kts 273°
2026-04-29 18:12 24.20089 115.88305 25660 ft 451 kts 273°
2026-04-29 18:12 24.20337 115.84872 25741 ft 451 kts 273°
2026-04-29 18:12 24.20583 115.81442 25808 ft 451 kts 273°
2026-04-29 18:13 24.20826 115.78052 25862 ft 452 kts 273°
2026-04-29 18:13 24.21071 115.74618 25916 ft 452 kts 273°
2026-04-29 18:13 24.21315 115.71189 25978 ft 452 kts 273°
2026-04-29 18:13 24.21560 115.67730 26016 ft 452 kts 273°
2026-04-29 18:14 24.21803 115.64292 26034 ft 453 kts 273°
2026-04-29 18:14 24.22043 115.60875 26054 ft 454 kts 273°
2026-04-29 18:14 24.22286 115.57422 26091 ft 454 kts 274°
2026-04-29 18:14 24.22528 115.53960 26163 ft 453 kts 273°
2026-04-29 18:15 24.22768 115.50528 26232 ft 453 kts 273°
2026-04-29 18:15 24.23008 115.47083 26291 ft 453 kts 273°
2026-04-29 18:15 24.23248 115.43632 26352 ft 453 kts 274°
2026-04-29 18:15 24.23523 115.40206 26410 ft 452 kts 274°
2026-04-29 18:16 24.23821 115.36816 26485 ft 452 kts 275°
2026-04-29 18:16 24.24132 115.33388 26547 ft 452 kts 275°
2026-04-29 18:16 24.24443 115.29946 26603 ft 452 kts 275°
2026-04-29 18:16 24.24749 115.26521 26649 ft 452 kts 275°
2026-04-29 18:17 24.25050 115.23096 26723 ft 452 kts 275°
2026-04-29 18:17 24.25348 115.19663 26821 ft 451 kts 275°
2026-04-29 18:17 24.25644 115.16237 26897 ft 451 kts 274°
2026-04-29 18:17 24.25939 115.12808 26965 ft 451 kts 274°
2026-04-29 18:18 24.26228 115.09423 27041 ft 451 kts 274°
2026-04-29 18:18 24.26521 115.06000 27131 ft 450 kts 274°
2026-04-29 18:18 24.26812 115.02589 27217 ft 450 kts 274°
2026-04-29 18:18 24.27102 114.99173 27284 ft 450 kts 275°
2026-04-29 18:19 24.27393 114.95745 27328 ft 451 kts 275°
2026-04-29 18:19 24.27684 114.92317 27404 ft 451 kts 275°
2026-04-29 18:19 24.27973 114.88895 27516 ft 450 kts 275°
2026-04-29 18:19 24.28261 114.85473 27619 ft 449 kts 275°
2026-04-29 18:20 24.28550 114.82106 27708 ft 449 kts 275°
2026-04-29 18:20 24.28850 114.78689 27814 ft 449 kts 275°
2026-04-29 18:20 24.29152 114.75300 27916 ft 449 kts 275°
2026-04-29 18:20 24.29455 114.71870 28019 ft 449 kts 275°
2026-04-29 18:21 24.29754 114.68487 28137 ft 448 kts 275°
2026-04-29 18:21 24.30052 114.65075 28264 ft 447 kts 275°
2026-04-29 18:21 24.30345 114.61723 28368 ft 447 kts 275°
2026-04-29 18:22 24.30936 114.54912 28609 ft 447 kts 275°
2026-04-29 18:22 24.31228 114.51537 28767 ft 445 kts 275°
2026-04-29 18:22 24.31528 114.48164 28895 ft 445 kts 275°
2026-04-29 18:22 24.31847 114.44770 28998 ft 445 kts 275°
2026-04-29 18:23 24.32170 114.41392 29133 ft 445 kts 275°
2026-04-29 18:23 24.32490 114.38054 29291 ft 444 kts 275°
2026-04-29 18:23 24.32811 114.34688 29340 ft 446 kts 275°
2026-04-29 18:24 24.33449 114.27897 29541 ft 446 kts 275°
2026-04-29 18:24 24.33764 114.24520 29711 ft 445 kts 275°
2026-04-29 18:24 24.34078 114.21149 29872 ft 444 kts 275°
2026-04-29 18:24 24.34393 114.17758 30004 ft 444 kts 275°
2026-04-29 18:25 24.34703 114.14424 30144 ft 444 kts 275°
2026-04-29 18:25 24.35015 114.11045 30286 ft 443 kts 275°
2026-04-29 18:25 24.35344 114.07703 30424 ft 443 kts 275°
2026-04-29 18:25 24.35695 114.04345 30532 ft 443 kts 276°
2026-04-29 18:26 24.36055 114.00967 30634 ft 444 kts 276°
2026-04-29 18:26 24.36413 113.97611 30794 ft 442 kts 276°
2026-04-29 18:26 24.36768 113.94260 30973 ft 441 kts 275°
2026-04-29 18:26 24.37114 113.90965 31114 ft 440 kts 275°
2026-04-29 18:27 24.37465 113.87604 31260 ft 440 kts 275°
2026-04-29 18:27 24.37809 113.84285 31441 ft 439 kts 275°
2026-04-29 18:27 24.38151 113.80966 31627 ft 438 kts 275°
2026-04-29 18:27 24.38492 113.77655 31799 ft 437 kts 275°
2026-04-29 18:28 24.38835 113.74326 31950 ft 436 kts 275°
2026-04-29 18:28 24.39514 113.67693 32204 ft 437 kts 275°
2026-04-29 18:28 24.39847 113.64441 32412 ft 435 kts 275°
2026-04-29 18:29 24.40184 113.61133 32619 ft 433 kts 275°
2026-04-29 18:29 24.40405 113.58963 32747 ft 433 kts 275°
2026-04-29 18:29 24.40851 113.54570 32982 ft 432 kts 274°
2026-04-29 18:29 24.41180 113.51319 33163 ft 431 kts 274°
2026-04-29 18:30 24.41511 113.48051 33359 ft 430 kts 274°
2026-04-29 18:30 24.41839 113.44795 33567 ft 429 kts 274°
2026-04-29 18:30 24.42169 113.41532 33753 ft 428 kts 274°
2026-04-29 18:30 24.42501 113.38320 33894 ft 429 kts 274°
2026-04-29 18:31 24.42843 113.35075 34060 ft 428 kts 275°
2026-04-29 18:31 24.43188 113.31823 34171 ft 427 kts 274°
2026-04-29 18:31 24.43529 113.28595 34180 ft 427 kts 274°
2026-04-29 18:32 24.44210 113.22105 34198 ft 428 kts 274°
2026-04-29 18:32 24.45223 113.12362 34199 ft 428 kts 274°
2026-04-29 18:33 24.45896 113.05853 34202 ft 429 kts 274°
2026-04-29 18:33 24.46556 112.99370 34199 ft 429 kts 274°
2026-04-29 18:34 24.46982 112.95020 34204 ft 429 kts 274°
2026-04-29 18:34 24.47829 112.86334 34203 ft 430 kts 274°
2026-04-29 18:35 24.48360 112.80891 34212 ft 430 kts 274°
2026-04-29 18:35 24.49099 112.73292 34206 ft 431 kts 274°
2026-04-29 18:36 24.49632 112.67842 34212 ft 431 kts 274°
2026-04-29 18:36 24.50276 112.61276 34217 ft 431 kts 274°
2026-04-29 18:37 24.51018 112.53656 34220 ft 432 kts 274°
2026-04-29 18:37 24.51548 112.48191 34215 ft 432 kts 274°
2026-04-29 18:38 24.52182 112.41619 34219 ft 433 kts 274°
2026-04-29 18:38 24.52817 112.35013 34222 ft 434 kts 274°
2026-04-29 18:39 24.53443 112.28471 34210 ft 434 kts 274°
2026-04-29 18:39 24.54070 112.21881 34226 ft 433 kts 274°
2026-04-29 18:40 24.54694 112.15301 34220 ft 432 kts 274°
2026-04-29 18:40 24.55310 112.08757 34217 ft 433 kts 274°
2026-04-29 18:41 24.56544 111.95567 34216 ft 435 kts 274°
2026-04-29 18:42 24.57161 111.88932 34225 ft 435 kts 274°
2026-04-29 18:42 24.57769 111.82358 34227 ft 436 kts 274°
2026-04-29 18:43 24.58381 111.75718 34218 ft 436 kts 274°
2026-04-29 18:43 24.58987 111.69105 34234 ft 437 kts 274°
2026-04-29 18:44 24.59594 111.62439 34227 ft 438 kts 274°
2026-04-29 18:44 24.60198 111.55780 34233 ft 438 kts 274°
2026-04-29 18:45 24.60798 111.49142 34238 ft 438 kts 274°
2026-04-29 18:45 24.61395 111.42487 34227 ft 439 kts 274°
2026-04-29 18:46 24.61990 111.35834 34239 ft 438 kts 274°
2026-04-29 18:46 24.62584 111.29157 34241 ft 438 kts 274°
2026-04-29 18:47 24.63168 111.22481 34231 ft 438 kts 274°
2026-04-29 18:47 24.63745 111.15830 34234 ft 438 kts 274°
2026-04-29 18:48 24.64318 111.09187 34240 ft 438 kts 274°
2026-04-29 18:48 24.64891 111.02523 34232 ft 438 kts 274°
2026-04-29 18:49 24.65462 110.95849 34236 ft 439 kts 274°
2026-04-29 18:49 24.66030 110.89179 34243 ft 439 kts 274°
2026-04-29 18:50 24.66633 110.82469 34231 ft 441 kts 278°
2026-04-29 18:50 24.67492 110.79232 34244 ft 444 kts 290°
2026-04-29 18:50 24.68902 110.76233 34241 ft 449 kts 299°
2026-04-29 18:51 24.70814 110.73491 34231 ft 455 kts 310°
2026-04-29 18:51 24.73120 110.71032 34252 ft 457 kts 313°
2026-04-29 18:51 24.77751 110.66292 34240 ft 458 kts 313°
2026-04-29 18:52 24.82391 110.61484 34246 ft 457 kts 312°
2026-04-29 18:52 24.86973 110.56660 34244 ft 456 kts 312°
2026-04-29 18:53 24.91550 110.51816 34242 ft 456 kts 312°
2026-04-29 18:53 24.96129 110.46968 34260 ft 455 kts 312°
2026-04-29 18:54 25.00679 110.42149 34254 ft 455 kts 312°
2026-04-29 18:54 25.05240 110.37332 34258 ft 455 kts 312°
2026-04-29 18:55 25.09834 110.32485 34267 ft 455 kts 312°
2026-04-29 18:55 25.14385 110.27677 34288 ft 454 kts 311°
2026-04-29 18:56 25.18946 110.22849 34287 ft 453 kts 311°
2026-04-29 18:56 25.23479 110.18069 34278 ft 453 kts 312°
2026-04-29 18:57 25.28062 110.13282 34287 ft 452 kts 312°
2026-04-29 18:57 25.32624 110.08514 34265 ft 452 kts 312°
2026-04-29 18:58 25.37188 110.03730 34270 ft 452 kts 312°
2026-04-29 18:58 25.42039 109.98637 34282 ft 452 kts 312°
2026-04-29 18:59 25.51142 109.89061 34271 ft 451 kts 311°
2026-04-29 19:00 25.55662 109.84298 34271 ft 449 kts 311°
2026-04-29 19:00 25.60198 109.79514 34269 ft 449 kts 311°
2026-04-29 19:01 25.64708 109.74751 34286 ft 447 kts 311°
2026-04-29 19:01 25.69195 109.70008 34266 ft 447 kts 311°
2026-04-29 19:02 25.72929 109.66056 34282 ft 446 kts 311°
2026-04-29 19:02 25.77418 109.59909 34287 ft 436 kts 295°
2026-04-29 19:03 25.79722 109.53750 34291 ft 430 kts 284°
2026-04-29 19:03 25.81373 109.47387 34279 ft 430 kts 283°
2026-04-29 19:04 25.83022 109.41002 34284 ft 430 kts 284°
2026-04-29 19:04 25.84697 109.34616 34303 ft 429 kts 284°
2026-04-29 19:05 25.86360 109.28313 34281 ft 427 kts 284°
2026-04-29 19:05 25.88027 109.21991 34286 ft 426 kts 284°
2026-04-29 19:06 25.89684 109.15690 34286 ft 425 kts 284°
2026-04-29 19:07 25.91886 109.07293 34290 ft 424 kts 284°
2026-04-29 19:07 25.93798 108.99986 34288 ft 423 kts 284°
2026-04-29 19:08 25.95163 108.94762 34304 ft 423 kts 284°
2026-04-29 19:08 25.96801 108.88479 34302 ft 423 kts 284°
2026-04-29 19:09 25.98704 108.81165 34312 ft 423 kts 284°
2026-04-29 19:09 26.00060 108.75943 34308 ft 423 kts 284°
2026-04-29 19:10 26.01703 108.69656 34317 ft 423 kts 284°
2026-04-29 19:10 26.03388 108.63379 34315 ft 423 kts 285°
2026-04-29 19:11 26.05068 108.57115 34323 ft 423 kts 285°
2026-04-29 19:11 26.06743 108.50831 34323 ft 423 kts 284°
2026-04-29 19:12 26.08409 108.44569 34315 ft 423 kts 284°
2026-04-29 19:12 26.10229 108.38323 34312 ft 425 kts 292°
2026-04-29 19:13 26.12800 108.32424 34327 ft 426 kts 293°
2026-04-29 19:13 26.15408 108.26481 34328 ft 425 kts 293°
2026-04-29 19:14 26.17969 108.20583 34316 ft 426 kts 292°
2026-04-29 19:14 26.20553 108.14600 34323 ft 425 kts 292°
2026-04-29 19:15 26.23093 108.08692 34321 ft 426 kts 292°
2026-04-29 19:15 26.25656 108.02730 34331 ft 426 kts 292°
2026-04-29 19:16 26.28211 107.96778 34317 ft 425 kts 292°
2026-04-29 19:16 26.30750 107.90856 34325 ft 426 kts 292°
2026-04-29 19:17 26.33304 107.84887 34328 ft 426 kts 292°
2026-04-29 19:17 26.35851 107.78929 34338 ft 425 kts 292°
2026-04-29 19:18 26.38392 107.72978 34321 ft 424 kts 292°
2026-04-29 19:18 26.40930 107.67022 34328 ft 424 kts 292°
2026-04-29 19:19 26.43452 107.61096 34332 ft 425 kts 292°
2026-04-29 19:19 26.45974 107.55163 34334 ft 425 kts 292°
2026-04-29 19:20 26.48516 107.49189 34328 ft 425 kts 292°
2026-04-29 19:20 26.51068 107.43247 34326 ft 425 kts 292°
2026-04-29 19:21 26.53626 107.37283 34322 ft 426 kts 292°
2026-04-29 19:21 26.56153 107.31338 34332 ft 426 kts 292°
2026-04-29 19:22 26.58672 107.25337 34339 ft 426 kts 292°
2026-04-29 19:22 26.61190 107.19334 34329 ft 426 kts 292°
2026-04-29 19:23 26.63697 107.13361 34326 ft 426 kts 292°
2026-04-29 19:23 26.66252 107.07351 34333 ft 427 kts 292°
2026-04-29 19:24 26.68801 107.01371 34324 ft 427 kts 292°
2026-04-29 19:24 26.71350 106.95370 34332 ft 428 kts 292°
2026-04-29 19:25 26.73886 106.89385 34318 ft 428 kts 292°
2026-04-29 19:25 26.76539 106.83404 34312 ft 432 kts 301°
2026-04-29 19:25 26.78596 106.80906 34332 ft 441 kts 316°
2026-04-29 19:26 26.81167 106.79034 34329 ft 450 kts 328°
2026-04-29 19:26 26.84119 106.77780 34319 ft 461 kts 341°
2026-04-29 19:26 26.87318 106.77349 34342 ft 469 kts 350°
2026-04-29 19:27 26.93864 106.77078 34320 ft 472 kts 352°
2026-04-29 19:27 27.00445 106.76852 34308 ft 472 kts 352°
2026-04-29 19:28 27.06976 106.76551 34336 ft 471 kts 351°
2026-04-29 19:28 27.13513 106.76213 34310 ft 469 kts 351°
2026-04-29 19:29 27.20025 106.75873 34310 ft 466 kts 351°
2026-04-29 19:29 27.26470 106.75540 34305 ft 465 kts 351°
2026-04-29 19:30 27.32922 106.75206 34312 ft 463 kts 351°
2026-04-29 19:30 27.39387 106.74908 34299 ft 464 kts 352°
2026-04-29 19:31 27.45820 106.74913 34303 ft 465 kts 354°
2026-04-29 19:31 27.52287 106.74989 34289 ft 465 kts 354°
2026-04-29 19:32 27.58764 106.75028 34301 ft 464 kts 353°
2026-04-29 19:32 27.65211 106.75039 34320 ft 464 kts 353°
2026-04-29 19:33 27.71629 106.75046 34295 ft 462 kts 353°
2026-04-29 19:33 27.78054 106.75052 34296 ft 461 kts 353°
2026-04-29 19:34 27.84462 106.75059 34291 ft 460 kts 353°
2026-04-29 19:34 27.90861 106.75068 34301 ft 458 kts 353°
2026-04-29 19:35 27.97203 106.75077 34295 ft 458 kts 352°
2026-04-29 19:35 28.03579 106.75084 34289 ft 456 kts 352°
2026-04-29 19:36 28.09920 106.75091 34043 ft 458 kts 352°
2026-04-29 19:36 28.13087 106.75092 33370 ft 458 kts 352°
2026-04-29 19:36 28.16254 106.75098 32663 ft 457 kts 353°
2026-04-29 19:36 28.19456 106.75101 31838 ft 458 kts 353°
2026-04-29 19:37 28.22667 106.75100 30992 ft 460 kts 353°
2026-04-29 19:37 28.24787 106.75099 30448 ft 461 kts 353°
2026-04-29 19:37 28.29054 106.75098 29172 ft 464 kts 353°
2026-04-29 19:37 28.32287 106.75075 28207 ft 463 kts 351°
2026-04-29 19:38 28.35508 106.74764 27001 ft 465 kts 346°
2026-04-29 19:38 28.38718 106.74262 26058 ft 465 kts 345°
2026-04-29 19:38 28.41875 106.73731 25320 ft 461 kts 345°
2026-04-29 19:38 28.45078 106.73201 24586 ft 458 kts 346°
2026-04-29 19:39 28.48181 106.72708 23867 ft 456 kts 346°
2026-04-29 19:39 28.51330 106.72226 23063 ft 453 kts 346°
2026-04-29 19:39 28.54436 106.71760 22312 ft 449 kts 347°
2026-04-29 19:39 28.57522 106.71302 21572 ft 443 kts 347°
2026-04-29 19:40 28.60569 106.70850 20855 ft 438 kts 348°
2026-04-29 19:40 28.63573 106.70402 20179 ft 433 kts 348°
2026-04-29 19:40 28.66555 106.69956 19480 ft 429 kts 349°
2026-04-29 19:40 28.69494 106.69518 18828 ft 423 kts 349°
2026-04-29 19:41 28.72375 106.69130 18025 ft 421 kts 352°
2026-04-29 19:41 28.75262 106.68915 17406 ft 414 kts 354°
2026-04-29 19:41 28.78147 106.68795 16657 ft 411 kts 355°
2026-04-29 19:41 28.81005 106.68706 15977 ft 407 kts 355°
2026-04-29 19:42 28.83825 106.68619 15304 ft 404 kts 355°
2026-04-29 19:42 28.85686 106.68555 14860 ft 402 kts 355°
2026-04-29 19:42 28.89373 106.68416 13977 ft 399 kts 355°
2026-04-29 19:42 28.92161 106.68302 13216 ft 397 kts 355°
2026-04-29 19:43 28.94879 106.68184 12558 ft 393 kts 355°
2026-04-29 19:43 28.97596 106.68066 11906 ft 390 kts 355°
2026-04-29 19:43 29.00297 106.67948 11404 ft 383 kts 356°
2026-04-29 19:43 29.02916 106.67835 11143 ft 371 kts 355°
2026-04-29 19:44 29.05469 106.67724 10945 ft 359 kts 355°
2026-04-29 19:44 29.07913 106.67617 10790 ft 347 kts 356°
2026-04-29 19:44 29.10290 106.67513 10631 ft 336 kts 356°
2026-04-29 19:44 29.12590 106.67411 10496 ft 326 kts 356°
2026-04-29 19:45 29.14808 106.67313 10350 ft 318 kts 356°
2026-04-29 19:45 29.17007 106.67216 10210 ft 309 kts 356°
2026-04-29 19:45 29.19132 106.67122 10092 ft 301 kts 356°
2026-04-29 19:45 29.21171 106.67032 10083 ft 288 kts 356°
2026-04-29 19:46 29.23122 106.66947 10048 ft 273 kts 356°
2026-04-29 19:46 29.24956 106.66867 9897 ft 254 kts 356°
2026-04-29 19:46 29.26662 106.66792 9774 ft 238 kts 356°
2026-04-29 19:46 29.28266 106.66721 9637 ft 223 kts 356°
2026-04-29 19:47 29.29786 106.66653 9298 ft 219 kts 356°
2026-04-29 19:47 29.31305 106.66585 8864 ft 219 kts 356°
2026-04-29 19:47 29.32831 106.66517 8481 ft 217 kts 356°
2026-04-29 19:47 29.34370 106.66448 8277 ft 223 kts 357°
2026-04-29 19:48 29.35922 106.66379 8005 ft 222 kts 357°
2026-04-29 19:48 29.36947 106.66334 7767 ft 224 kts 357°
2026-04-29 19:48 29.39033 106.66180 7334 ft 224 kts 345°
2026-04-29 19:48 29.40339 106.65269 6979 ft 222 kts 305°
2026-04-29 19:49 29.41008 106.63702 6689 ft 218 kts 286°
2026-04-29 19:49 29.41444 106.62062 6406 ft 216 kts 284°
2026-04-29 19:49 29.41861 106.60420 6173 ft 211 kts 284°
2026-04-29 19:49 29.42274 106.58816 5879 ft 210 kts 284°
2026-04-29 19:50 29.42686 106.57220 5619 ft 207 kts 284°
2026-04-29 19:50 29.43414 106.55804 5296 ft 212 kts 320°
2026-04-29 19:50 29.44761 106.55149 5012 ft 212 kts 351°
2026-04-29 19:50 29.46239 106.55248 4679 ft 212 kts 16°
2026-04-29 19:51 29.47625 106.55735 4415 ft 211 kts 18°
2026-04-29 19:51 29.49032 106.56224 4121 ft 211 kts 18°
2026-04-29 19:51 29.50443 106.56694 4004 ft 210 kts 18°
2026-04-29 19:51 29.51837 106.57166 3980 ft 209 kts 18°
2026-04-29 19:52 29.53237 106.57650 3989 ft 209 kts 19°
2026-04-29 19:52 29.54624 106.58132 3983 ft 207 kts 19°
2026-04-29 19:52 29.55970 106.58600 3969 ft 196 kts 19°
2026-04-29 19:52 29.57248 106.59045 3971 ft 191 kts 19°
2026-04-29 19:53 29.59828 106.59944 3572 ft 200 kts 19°
2026-04-29 19:53 29.61153 106.60404 3315 ft 198 kts 19°
2026-04-29 19:53 29.62467 106.60862 3071 ft 194 kts 19°
2026-04-29 19:54 29.64910 106.61710 2551 ft 173 kts 19°
2026-04-29 19:54 29.66023 106.62098 2354 ft 165 kts 19°
2026-04-29 19:54 29.67099 106.62473 2099 ft 156 kts 17°
2026-04-29 19:55 29.68117 106.62827 1892 ft 151 kts 17°
2026-04-29 19:55 29.69115 106.63174 1694 ft 149 kts 16°
2026-04-29 19:55 29.70106 106.63519 1482 ft 149 kts 17°
2026-04-29 19:55 29.71102 106.63870 1359 ft 146 kts 17°
2026-04-29 19:56 29.71950 106.64162 1360 ft 107 kts 17°
2026-04-29 19:56 29.72517 106.64358 1359 ft 63 kts 17°
2026-04-29 19:56 29.72793 106.64457 1359 ft 24 kts 17°
2026-04-29 19:56 29.72945 106.64509 1359 ft 22 kts 16°
2026-04-29 19:57 29.73090 106.64558 1359 ft 21 kts 16°
2026-04-29 19:57 29.73182 106.64590 1359 ft 16 kts 17°
2026-04-29 19:57 29.73257 106.64654 1357 ft 10 kts 83°
2026-04-29 19:57 29.73241 106.64731 1356 ft 10 kts 107°
2026-04-29 19:58 29.73206 106.64794 1355 ft 10 kts 155°
2026-04-29 19:58 29.73139 106.64783 1355 ft 10 kts 194°
2026-04-29 19:58 29.73077 106.64762 1357 ft 9 kts 199°
2026-04-29 19:58 29.73019 106.64780 1355 ft 9 kts 129°
2026-04-29 19:59 29.72996 106.64848 1356 ft 9 kts 106°
2026-04-29 19:59 29.72978 106.64916 1358 ft 9 kts 107°
2026-04-29 19:59 29.72960 106.64984 1356 ft 10 kts 107°
2026-04-29 19:59 29.72937 106.65070 1355 ft 13 kts 107°
2026-04-29 20:00 29.72910 106.65177 1353 ft 14 kts 101°
2026-04-29 20:00 29.72894 106.65259 1354 ft 6 kts 92°
2026-04-29 20:00 29.72916 106.65298 1352 ft 6 kts 49°
2026-04-29 20:00 29.72913 106.65344 1354 ft 6 kts 108°
2026-04-29 20:01 29.72902 106.65381 1351 ft 4 kts 106°
2026-04-29 20:01 29.72899 106.65394 1351 ft 0 kts 105°